Regional Weather Roundup
Issued by NWS

Home | Current Version | Previous Version | Text Only | Print | Product List | Glossary Off
Versions: 1 2 3 4 5 6 7 8 9 10 11 12 13 14 15 16 17 18 19 20 21 22 23 24 25 26 27

000
ASUS45 KGTF 271210
RWRMT
MONTANA HOURLY WEATHER ROUNDUP
NATIONAL WEATHER SERVICE GREAT FALLS MT
600 AM MDT MON APR 27 2015

NOTE: "FAIR" INDICATES FEW OR NO CLOUDS BELOW 12000 FEET WITH NO
SIGNIFICANT WEATHER AND/OR OBSTRUCTIONS TO VISIBILITY.

MTZ001>007-043-271300-
WEST OF THE DIVIDE

CITY           SKY/WX    TMP DP  RH WIND       PRES   REMARKS
KALISPELL      FOG       29  28  96 CALM      30.31R VSB 1/2
MISSOULA       CLOUDY    36  35  96 W3        30.35S
BUTTE          CLEAR     25  22  88 CALM      30.31R
DEER LODGE       N/A     28  27  93 SW3       30.36R
EUREKA           N/A     28  27  93 CALM      30.31R
HAMILTON         N/A     32  28  86 S3        30.34R
LIBBY            N/A     25  23  93 CALM      30.33R
$$

MTZ008-052>055-271300-
SOUTHWEST MONTANA

CITY           SKY/WX    TMP DP  RH WIND       PRES   REMARKS
BOZEMAN        CLEAR     31  29  92 NW6       30.32R FOG     WCI  25
DILLON         MOCLDY    31  29  92 CALM      30.30R
$$

MTZ009-010-012-014-046-048-049-054-271300-
EAST SLOPES AND CENTRAL MONTANA

CITY           SKY/WX    TMP DP  RH WIND       PRES   REMARKS
CUT BANK       CLEAR     32  26  78 SW8       30.21R WCI  25
GREAT FALLS    CLEAR     32  29  88 SW13      30.25R WCI  22
MALMSTROM AFB  CLEAR     28  27  95 SW6       30.27R WCI  22
HELENA         FOG       26  25  96 CALM      30.32R VSB 1/4
$$

MTZ011-013-016-021-045-047-050-051-271300-
NORTH CENTRAL MONTANA

CITY           SKY/WX    TMP DP  RH WIND       PRES   REMARKS
HAVRE          CLEAR     27  25  92 W3        30.26R
LEWISTOWN      CLEAR     27  24  89 S5        30.26R
CHINOOK          N/A     25  21  86 CALM      30.28R
FORT BENTON      N/A     28  27  93 SW3       30.28S
$$

MTZ017>020-022>042-056>058-061-062-271300-
EASTERN PLAINS

CITY           SKY/WX    TMP DP  RH WIND       PRES   REMARKS
BAKER          CLOUDY    37  35  92 NW12      30.28R WCI  29
BILLINGS       PTCLDY    35  32  88 SW6       30.29S WCI  30
GLASGOW        CLOUDY    39  35  86 W5        30.28R
JORDAN           N/A     38  36  92 W7        30.29R
LIVINGSTON     PTCLDY    33  30  88 NW6       30.28R WCI  28
MILES CITY     CLOUDY    38  36  92 W6        30.30R
SIDNEY         CLOUDY    39  37  93 W5        30.29R
WOLF POINT     CLOUDY    41  39  93 SW3       30.30R
BIG TIMBER       N/A     34  32  93 CALM      30.28S
FORSYTH          N/A     37  37 100 W6        30.31R
PLENTYWOOD       N/A     39  39 100 CALM      30.28R
POPLAR           N/A     39  39 100 SW5       30.30R
$$

REGIONAL REPORTS...DAKOTAS

CITY           SKY/WX    TMP DP  RH WIND       PRES   REMARKS
WILLISTON      LGT RAIN  41  38  89 W6        30.28R
MINOT          LGT RAIN  40  38  93 NW8       30.24R
DICKINSON      LGT RAIN  41  40  96 N9        30.22R FOG
BEACH          CLOUDY    37  37 100 NW10      30.28R FOG     WCI  30
CROSBY         CLOUDY    37  37 100 CALM      30.28R
WATFORD CITY   LGT RAIN  39  39 100 CALM      30.26R
BISMARCK       CLOUDY    45  44  97 W6        30.22R FOG
GRAND FORKS    MOCLDY    34  28  79 S3        30.18S
FARGO          PTCLDY    37  25  61 SW5       30.20R
BUFFALO SD       N/A     38  37  97 NW17      30.17R WCI  28
RAPID CITY     CLOUDY    42  39  89 N20       30.20R
$$

REGIONAL REPORTS...WYOMING/IDAHO/WASHINGTON

CITY           SKY/WX    TMP DP  RH WIND       PRES   REMARKS
GILLETTE       LGT SNOW  33  32  96 NW7       30.26R FOG     WCI  27
SHERIDAN       CLOUDY    36  34  92 NW3       30.29R
BUFFALO WY     SNOW      33  32  96 N5        30.27R VSB 1/4
CODY           CLOUDY    34  30  86 CALM      30.27R
YELLOWSTONE LA   N/A     25  22  88 CALM      30.27R
IDAHO FALLS    CLEAR     31  28  89 CALM      30.25R
SALMON         CLEAR     34  28  80 CALM      30.32S
BOISE          CLEAR     37  26  64 CALM      30.27R
SPOKANE        CLEAR     39  27  62 SE5       30.29S
$$

REGIONAL REPORTS...ALBERTA

CITY           SKY/WX    TMP DP  RH WIND       PRES   REMARKS
EDMONTON       CLEAR     36  27  69 SW5       30.06R
CALGARY        MOCLDY    32  21  64 S7        30.11R WCI  26
LETHBRIDGE     MOCLDY    37  28  70 S17       30.16R WCI  28
MEDICINE HAT   CLEAR     32  28  86 S8        30.19R WCI  25
$$

REGIONAL REPORTS...SASKATCHEWAN

CITY           SKY/WX    TMP DP  RH WIND       PRES   REMARKS
SWIFT CURRENT  CLEAR     30  27  86 SW8       30.23S WCI  23
REGINA         PTCLDY    30  30 100 W6        30.27R WCI  24
SASKATOON      CLEAR     27  27 100 S3        30.26R
$$



USA.gov is the U.S. government's official web portal to all federal, state and local government web resources and services.